• In Germany
  • List of Countries
  • For 7 days
  • Water Temperature
  • Satellite Maps
  • Weather Map
  • Weather Widgets
  • user-avatar
    Login

    Hourly Weather Ghazni

    Today, 24 August, Thursday

    Time Temperature Precipitation Wind Pressure Humidity
    00:00 +24°C° 0 mm 3 mps 587 mmHg 20%
    01:00 +23°C° 0 mm 2 mps 587 mmHg 22%
    02:00 +23°C° 0 mm 2 mps 586 mmHg 25%
    03:00 +21°C° 0 mm 2 mps 586 mmHg 29%
    04:00 +21°C° 0 mm 1 mps 586 mmHg 32%
    05:00 +21°C° 0 mm 1 mps 585 mmHg 35%
    06:00 +21°C° 0 mm 1 mps 586 mmHg 33%
    07:00 +22°C° 0 mm 1 mps 586 mmHg 31%
    08:00 +23°C° 0 mm 1 mps 587 mmHg 29%
    09:00 +24°C° 0 mm 1 mps 587 mmHg 25%
    10:00 +26°C° 0 mm 2 mps 588 mmHg 21%
    11:00 +27°C° 0 mm 2 mps 588 mmHg 17%
    12:00 +28°C° 0 mm 3 mps 588 mmHg 14%
    13:00 +30°C° 0 mm 4 mps 588 mmHg 12%
    14:00 +32°C° 0 mm 5 mps 588 mmHg 9%
    15:00 +32°C° 0 mm 5 mps 588 mmHg 8%
    16:00 +32°C° 0 mm 6 mps 588 mmHg 7%
    17:00 +32°C° 0 mm 7 mps 588 mmHg 6%
    18:00 +30°C° 0 mm 6 mps 587 mmHg 7%
    19:00 +28°C° 0 mm 6 mps 587 mmHg 8%
    20:00 +27°C° 0 mm 6 mps 587 mmHg 8%
    21:00 +26°C° 0 mm 5 mps 587 mmHg 9%
    22:00 +25°C° 0 mm 4 mps 587 mmHg 10%
    23:00 +24°C° 0 mm 3 mps 587 mmHg 11%

    Tomorrow, 25 August, Friday

    Time Temperature Precipitation Wind Pressure Humidity
    00:00 +22°C° 0 mm 3 mps 586 mmHg 14%
    01:00 +23°C° 0 mm 2 mps 586 mmHg 17%
    02:00 +21°C° 0 mm 2 mps 585 mmHg 19%
    03:00 +20°C° 0 mm 2 mps 585 mmHg 22%
    04:00 +20°C° 0 mm 2 mps 585 mmHg 24%
    05:00 +19°C° 0 mm 2 mps 585 mmHg 26%
    06:00 +20°C° 0 mm 2 mps 585 mmHg 26%
    07:00 +21°C° 0 mm 2 mps 586 mmHg 25%
    08:00 +21°C° 0 mm 2 mps 586 mmHg 25%
    09:00 +24°C° 0 mm 2 mps 587 mmHg 22%
    10:00 +25°C° 0 mm 1 mps 587 mmHg 20%
    11:00 +26°C° 0 mm 1 mps 587 mmHg 17%
    12:00 +27°C° 0 mm 2 mps 587 mmHg 16%
    13:00 +28°C° 0 mm 2 mps 587 mmHg 14%
    14:00 +29°C° 0 mm 2 mps 587 mmHg 12%
    15:00 +29°C° 0 mm 3 mps 587 mmHg 11%
    16:00 +30°C° 0 mm 3 mps 587 mmHg 11%
    17:00 +30°C° 0 mm 4 mps 586 mmHg 10%
    18:00 +29°C° 0 mm 4 mps 586 mmHg 10%
    19:00 +28°C° 0 mm 4 mps 586 mmHg 10%
    20:00 +27°C° 0 mm 4 mps 586 mmHg 10%
    21:00 +26°C° 0 mm 4 mps 586 mmHg 11%
    22:00 +25°C° 0 mm 3 mps 586 mmHg 12%
    23:00 +24°C° 0 mm 3 mps 586 mmHg 12%

    Day after tomorrow, 26 August, Saturday

    Time Temperature Precipitation Wind Pressure Humidity
    00:00 +23°C° 0 mm 2 mps 585 mmHg 14%
    01:00 +23°C° 0 mm 2 mps 585 mmHg 16%
    02:00 +21°C° 0 mm 2 mps 585 mmHg 18%
    03:00 +20°C° 0 mm 2 mps 584 mmHg 18%
    04:00 +19°C° 0 mm 2 mps 584 mmHg 19%
    05:00 +19°C° 0 mm 2 mps 584 mmHg 20%
    06:00 +19°C° 0 mm 2 mps 585 mmHg 18%
    07:00 +20°C° 0 mm 2 mps 586 mmHg 17%
    08:00 +21°C° 0 mm 2 mps 586 mmHg 16%
    09:00 +23°C° 0 mm 2 mps 587 mmHg 15%
    10:00 +24°C° 0 mm 2 mps 587 mmHg 14%
    11:00 +26°C° 0 mm 2 mps 587 mmHg 13%
    12:00 +26°C° 0 mm 2 mps 587 mmHg 12%
    13:00 +27°C° 0 mm 2 mps 587 mmHg 11%
    14:00 +28°C° 0 mm 2 mps 587 mmHg 10%
    15:00 +28°C° 0 mm 2 mps 587 mmHg 10%
    16:00 +29°C° 0 mm 2 mps 586 mmHg 10%
    17:00 +29°C° 0 mm 3 mps 586 mmHg 9%
    18:00 +28°C° 0 mm 2 mps 586 mmHg 10%
    19:00 +27°C° 0 mm 2 mps 586 mmHg 11%
    20:00 +27°C° 0 mm 2 mps 586 mmHg 12%
    21:00 +26°C° 0 mm 2 mps 586 mmHg 14%
    22:00 +25°C° 0 mm 2 mps 586 mmHg 17%
    23:00 +24°C° 0 mm 2 mps 586 mmHg 19%

    27 August, Sunday

    Time Temperature Precipitation Wind Pressure Humidity
    00:00 +23°C° 0.1 mm 2 mps 586 mmHg 24%
    01:00 +21°C° 0.1 mm 2 mps 585 mmHg 29%
    02:00 +21°C° 0.1 mm 2 mps 585 mmHg 34%
    03:00 +20°C° 0 mm 2 mps 585 mmHg 33%
    04:00 +20°C° 0 mm 2 mps 585 mmHg 31%
    05:00 +19°C° 0 mm 2 mps 585 mmHg 29%
    06:00 +20°C° 0 mm 2 mps 585 mmHg 26%
    07:00 +21°C° 0 mm 2 mps 586 mmHg 24%
    08:00 +21°C° 0 mm 2 mps 586 mmHg 22%
    09:00 +23°C° 0 mm 2 mps 587 mmHg 22%
    10:00 +24°C° 0 mm 2 mps 587 mmHg 22%
    11:00 +25°C° 0 mm 1 mps 587 mmHg 23%
    12:00 +26°C° 0 mm 2 mps 587 mmHg 20%
    13:00 +27°C° 0 mm 2 mps 587 mmHg 17%
    14:00 +29°C° 0 mm 2 mps 587 mmHg 14%
    15:00 +29°C° 0 mm 3 mps 587 mmHg 13%
    16:00 +29°C° 0 mm 3 mps 587 mmHg 12%
    17:00 +29°C° 0 mm 4 mps 587 mmHg 12%
    18:00 +29°C° 0 mm 3 mps 587 mmHg 12%
    19:00 +28°C° 0 mm 3 mps 587 mmHg 13%
    20:00 +27°C° 0 mm 3 mps 587 mmHg 13%
    21:00 +26°C° 0 mm 3 mps 587 mmHg 17%
    22:00 +25°C° 0 mm 3 mps 587 mmHg 20%
    23:00 +24°C° 0 mm 3 mps 587 mmHg 24%

    28 August, Monday

    Time Temperature Precipitation Wind Pressure Humidity
    00:00 +22°C° 0 mm 3 mps 587 mmHg 30%
    01:00 +23°C° 0 mm 2 mps 586 mmHg 36%
    02:00 +21°C° 0 mm 2 mps 586 mmHg 42%
    03:00 +21°C° 0 mm 2 mps 586 mmHg 45%
    04:00 +20°C° 0 mm 2 mps 586 mmHg 47%
    05:00 +20°C° 0 mm 2 mps 586 mmHg 49%
    06:00 +20°C° 0 mm 2 mps 586 mmHg 47%
    07:00 +21°C° 0 mm 2 mps 587 mmHg 46%
    08:00 +21°C° 0 mm 2 mps 588 mmHg 44%
    09:00 +23°C° 0 mm 2 mps 588 mmHg 39%
    10:00 +25°C° 0 mm 1 mps 588 mmHg 34%
    11:00 +26°C° 0 mm 1 mps 588 mmHg 29%
    12:00 +27°C° 0 mm 2 mps 588 mmHg 25%
    13:00 +28°C° 0 mm 2 mps 588 mmHg 21%
    14:00 +29°C° 0 mm 3 mps 588 mmHg 17%
    15:00 +29°C° 0 mm 3 mps 588 mmHg 16%
    16:00 +29°C° 0 mm 4 mps 588 mmHg 15%
    17:00 +30°C° 0 mm 4 mps 588 mmHg 14%
    18:00 +29°C° 0 mm 3 mps 588 mmHg 14%
    19:00 +28°C° 0 mm 3 mps 588 mmHg 15%
    20:00 +27°C° 0 mm 3 mps 587 mmHg 16%
    21:00 +26°C° 0 mm 3 mps 587 mmHg 21%
    22:00 +25°C° 0 mm 3 mps 587 mmHg 26%
    23:00 +23°C° 0 mm 4 mps 587 mmHg 31%

    29 August, Tuesday

    Time Temperature Precipitation Wind Pressure Humidity
    00:00 +22°C° 0 mm 3 mps 587 mmHg 37%
    01:00 +23°C° 0 mm 2 mps 586 mmHg 43%
    02:00 +22°C° 0 mm 1 mps 586 mmHg 49%
    03:00 +22°C° 0 mm 1 mps 586 mmHg 51%
    04:00 +21°C° 0 mm 1 mps 586 mmHg 54%
    05:00 +21°C° 0 mm 1 mps 586 mmHg 56%
    06:00 +20°C° 0 mm 2 mps 587 mmHg 54%
    07:00 +21°C° 0 mm 2 mps 587 mmHg 51%
    08:00 +21°C° 0 mm 2 mps 588 mmHg 49%
    09:00 +24°C° 0 mm 2 mps 588 mmHg 42%
    10:00 +25°C° 0 mm 2 mps 588 mmHg 35%
    11:00 +26°C° 0 mm 2 mps 589 mmHg 28%
    12:00 +27°C° 0 mm 2 mps 589 mmHg 25%
    13:00 +28°C° 0 mm 2 mps 589 mmHg 22%
    14:00 +29°C° 0 mm 2 mps 588 mmHg 19%
    15:00 +29°C° 0 mm 3 mps 588 mmHg 18%
    16:00 +29°C° 0 mm 3 mps 588 mmHg 17%
    17:00 +30°C° 0 mm 3 mps 588 mmHg 17%
    18:00 +29°C° 0 mm 3 mps 588 mmHg 19%
    19:00 +28°C° 0 mm 3 mps 588 mmHg 20%
    20:00 +27°C° 0 mm 3 mps 588 mmHg 22%
    21:00 +26°C° 0 mm 3 mps 588 mmHg 29%
    22:00 +25°C° 0 mm 3 mps 588 mmHg 36%
    23:00 +23°C° 0 mm 4 mps 587 mmHg 43%
    Show more